Voltar ao catálogo

ONEWEB-0684

AtivoComunicaçõesPO
NORAD 56720·PAYLOAD·🇬🇧 United Kingdom

Lançado May 20, 2023 de Vandenberg Space Force Base

Loading…

Próximas Passagens (próximas 24 horas)

TLE

AtualizadoSource: CelesTrak SupGP

Época: Sep 14, 2026, 23:17 UTC

1 56720C 23068L   26257.97066390 -.00000434  00000+0 -11546-2 0  2579
2 56720  87.8982 241.2854 0002278  51.1553 344.7440 13.15547938    12

Acompanhe ONEWEB-0684 em tempo real com AllMySat

Download on the App Store